Wind_Speed
40 44 46 47 48 48 49 50 47 46 46 47 48 50 52 53 53 52 53 51 51 53 53 53 53 53 55 56 58 58 57 57 56 54 54 51 50 49 48 48 47 46 45 44 44 46 47 48 49 50 51 52 52 52 52 53 53 54 55 56 57 58 59 60 60 60 60 60 60 60 60 60 60 60 60 60 61 61 61 61 61 61 61 61 61
42 46 47 48 49 50 52 50 45 43 45 48 50 51 51 53 55 55 56 56 55 55 55 55 55 55 56 57 57 58 58 57 56 54 52 52 52 51 51 49 47 46 45 44 44 45 46 47 49 50 51 52 52 52 52 53 53 54 54 55 56 57 58 59 60 60 61 61 61 61 61 61 61 61 61 61 61 62 62 62 62 62 61 62 62
41 45 46 47 48 50 50 47 42 41 43 47 49 51 53 54 57 58 59 59 59 58 58 57 58 57 57 58 58 58 59 58 57 54 51 51 52 53 52 51 49 47 46 45 45 45 45 47 48 49 51 52 53 53 53 53 53 54 54 54 55 56 57 58 59 59 60 60 61 61 62 62 62 62 63 63 63 63 63 63 63 63 63 63 63
37 41 43 44 46 46 44 42 40 39 41 45 47 49 52 55 57 59 59 59 59 59 59 59 59 59 58 59 60 59 59 59 58 55 52 51 51 52 52 52 51 49 47 46 46 46 45 46 47 49 50 51 52 53 54 54 53 54 54 54 54 55 55 56 56 57 58 58 59 60 61 62 62 63 63 64 64 64 64 65 65 65 65 65 65
32 37 40 42 43 42 40 39 39 38 39 42 45 48 50 53 55 56 57 57 57 57 57 58 58 59 60 60 61 60 59 58 57 56 54 51 50 51 51 52 52 51 49 48 48 48 47 46 46 47 49 50 52 53 54 55 55 55 54 54 54 55 55 56 56 57 59 60 61 62 62 63 63 64 64 64 64 65 65 65 66 66 66 66 66
29 32 36 38 40 41 39 39 39 39 39 41 43 45 47 49 51 52 52 53 53 54 55 56 57 58 60 60 61 61 59 57 56 56 55 52 50 49 49 50 51 51 51 50 49 49 49 47 47 47 47 49 50 52 53 54 55 55 55 55 55 56 57 58 60 61 62 63 64 64 65 65 66 66 67 67 67 67 67 67 67 67 67 67 67
28 30 32 34 36 37 37 37 38 38 38 39 41 42 43 45 46 47 48 49 50 51 52 54 56 57 59 59 59 60 59 57 56 55 55 54 51 49 48 48 49 50 51 51 50 50 50 50 49 48 48 48 49 50 51 52 52 53 53 53 53 55 56 57 58 59 60 60 62 63 63 64 66 67 68 69 70 70 71 71 70 70 70 70 70
27 29 30 31 32 33 33 34 34 35 35 36 37 38 39 40 41 42 43 44 45 47 48 50 52 54 56 57 57 57 57 57 56 56 55 54 52 51 50 49 49 50 51 52 52 52 52 52 51 50 50 50 50 50 51 51 51 51 51 51 51 52 54 54 54 55 56 57 58 59 60 62 63 65 67 68 69 70 70 71 71 71 71 71 72
25 27 29 30 30 30 30 30 30 30 31 32 34 35 36 37 37 38 38 39 40 41 43 45 48 50 52 53 53 53 54 55 55 56 56 54 54 53 52 51 50 50 51 52 53 53 53 53 52 51 50 51 51 51 51 51 51 51 51 51 51 52 53 53 53 54 55 56 57 58 60 61 62 63 65 66 67 68 69 69 70 70 70 70 70
23 25 27 28 28 28 28 28 27 27 27 29 31 33 35 35 35 35 35 35 36 36 37 39 42 45 47 49 49 50 51 52 54 56 57 55 55 55 54 52 51 50 50 51 52 53 53 53 53 52 51 51 51 51 51 51 52 52 52 53 54 54 55 55 55 55 56 57 58 59 61 62 63 64 64 65 66 67 68 68 68 68 68 68 68
20 22 24 25 26 26 27 26 25 25 25 26 28 30 32 34 34 34 34 34 34 34 34 35 37 40 43 45 47 48 50 52 53 56 57 57 56 55 55 53 52 51 50 50 50 51 53 54 54 54 54 53 53 52 52 52 53 54 55 56 57 59 60 60 60 61 61 62 62 62 63 64 64 65 65 65 66 66 67 67 67 67 67 67 67
17 19 21 22 24 24 25 25 24 24 24 25 26 28 30 31 32 32 33 33 34 34 34 34 35 37 40 43 45 48 50 52 54 55 57 57 57 56 55 55 54 54 53 52 52 52 53 55 56 57 57 56 56 55 54 54 55 56 57 59 60 62 63 64 65 66 67 68 68 67 66 66 66 66 66 66 66 66 67 67 67 67 68 69 69
14 15 17 19 21 22 23 23 23 23 23 23 24 25 27 29 30 31 31 31 32 33 34 34 35 37 39 41 43 46 48 50 53 55 56 56 57 56 56 56 56 56 55 55 55 55 55 56 57 58 59 59 59 58 58 58 58 59 60 62 63 65 66 67 68 68 69 69 70 69 69 68 68 68 68 67 67 68 68 68 68 69 70 72 74
13 13 14 16 17 19 20 21 22 22 23 23 23 23 24 26 28 30 30 30 31 31 32 33 35 36 38 40 42 44 45 47 50 53 55 57 58 58 58 58 58 58 58 58 58 58 58 58 58 58 59 60 61 61 61 61 62 63 64 65 66 67 68 68 68 68 68 68 68 69 69 69 69 69 69 69 69 70 70 71 71 73 75 77 78
12 13 13 14 15 16 17 19 20 21 22 23 23 23 23 24 26 28 29 30 30 31 32 33 34 35 37 39 41 42 43 45 47 49 52 54 56 58 59 59 59 59 59 60 60 60 60 60 60 60 59 60 60 62 62 63 65 66 66 66 67 67 67 66 66 66 66 66 67 67 68 69 70 71 71 72 72 72 73 74 75 77 78 79 79
12 13 13 14 14 15 16 17 18 19 20 21 22 23 24 24 24 26 27 29 30 31 31 32 33 34 36 37 39 40 41 43 45 47 48 50 52 54 55 57 58 58 59 59 59 60 60 61 61 61 60 61 61 62 63 64 64 64 64 64 64 64 64 64 64 64 65 65 66 66 67 69 70 71 72 73 74 75 75 76 77 78 78 78 78
13 13 14 14 15 16 16 17 18 18 19 19 21 22 23 23 24 25 26 27 28 29 30 31 31 32 34 35 36 37 38 39 41 43 45 46 47 48 50 51 52 53 54 55 56 57 58 58 59 60 60 61 61 61 61 61 60 60 59 59 59 60 60 60 61 62 63 64 64 65 66 68 69 71 72 73 74 74 75 75 75 75 75 75 75
13 14 14 15 16 17 17 18 18 18 19 19 19 20 21 22 23 24 25 26 27 28 29 30 30 31 32 33 33 34 35 35 37 39 40 41 42 43 44 45 47 48 49 50 51 52 54 55 56 57 57 57 57 57 56 56 55 55 55 55 55 55 56 57 58 59 60 61 62 63 64 65 66 67 68 69 69 70 70 70 70 70 70 70 71
15 15 15 16 16 17 18 18 19 19 19 19 20 20 21 21 22 23 24 25 26 28 29 29 30 30 31 31 32 32 32 33 34 35 37 38 38 38 39 41 42 43 44 45 46 47 48 49 50 51 51 52 51 51 51 51 51 51 51 51 51 52 53 53 54 55 56 57 58 59 60 61 62 63 63 64 64 64 65 65 65 65 65 66 66
16 16 16 17 17 18 18 19 19 20 20 20 20 21 21 21 21 22 23 23 25 26 27 28 29 29 30 30 31 31 32 32 33 34 35 36 36 36 36 37 37 39 40 41 41 42 43 44 44 45 46 46 47 47 47 48 48 49 49 50 50 51 51 52 53 54 55 55 56 57 58 59 60 61 62 62 63 63 64 64 64 64 65 65 65
18 17 18 18 18 19 19 19 20 20 20 21 21 21 21 22 22 22 23 23 24 24 25 25 26 26 27 28 29 30 30 31 32 33 34 35 35 35 34 34 35 36 37 38 38 39 40 40 41 42 43 44 45 46 46 47 48 49 49 50 51 52 52 53 53 54 55 55 56 57 57 58 59 60 61 61 62 63 63 64 64 64 65 65 65
19 19 19 19 19 19 20 20 21 21 21 21 22 22 22 23 23 24 24 24 25 25 25 25 25 25 26 27 27 28 29 29 30 31 32 33 34 34 34 34 34 35 36 37 38 38 39 40 41 42 43 44 44 45 46 46 47 48 48 49 50 50 51 51 52 52 53 54 54 55 55 56 57 58 59 59 60 60 61 61 62 62 63 64 65
20 21 20 20 20 20 21 21 21 21 21 21 22 22 23 24 25 25 25 25 26 25 25 25 25 26 26 27 28 28 28 28 28 29 31 32 33 33 33 33 34 35 36 37 38 39 40 41 41 42 42 42 43 43 44 44 44 45 46 47 47 48 49 49 50 51 52 52 53 54 54 55 56 56 57 58 58 59 59 59 60 61 62 62 63
20 21 21 21 21 21 22 22 22 22 22 21 22 23 24 25 25 26 26 25 26 26 26 26 26 27 28 29 29 29 28 28 29 30 31 31 32 33 33 34 34 35 36 37 38 38 39 39 39 40 40 40 41 41 42 43 43 44 45 46 47 48 48 49 50 51 52 52 53 54 54 55 55 56 57 57 58 59 59 60 60 61 61 62 63
22 22 21 22 22 23 23 23 23 22 22 22 22 24 25 25 25 25 25 25 26 27 27 27 27 28 29 29 29 29 29 29 30 31 32 32 33 34 34 34 34 35 35 36 36 37 37 37 38 39 40 40 41 42 43 44 45 46 46 47 48 48 50 50 51 52 53 53 54 54 55 55 55 56 57 57 58 59 59 60 61 61 62 63 63
23 23 22 22 23 24 24 24 24 24 23 23 24 25 25 25 25 25 25 26 26 27 28 28 28 29 29 29 29 29 29 30 31 31 32 33 33 34 34 34 34 34 35 35 36 36 37 38 39 40 41 42 43 44 45 46 47 48 49 49 50 50 51 52 53 53 54 54 54 54 55 55 55 56 56 57 57 58 59 60 60 61 62 63 64
24 24 23 24 24 25 25 25 25 24 24 25 25 26 26 26 25 25 26 26 26 27 28 28 29 29 30 30 30 31 31 31 32 32 33 33 33 34 35 35 35 35 36 37 38 39 40 40 41 42 43 44 45 45 46 47 48 49 49 50 50 51 51 52 53 53 54 54 54 55 55 55 55 56 56 57 57 57 58 58 59 60 61 62 62
24 24 24 25 26 25 26 26 26 25 25 26 26 26 26 26 26 26 26 26 26 26 27 28 29 29 30 31 31 32 33 33 33 34 34 34 35 35 36 37 37 38 38 39 39 40 41 41 42 43 44 44 45 45 46 47 48 48 49 49 50 50 51 52 53 53 54 54 54 55 55 55 56 56 56 57 57 57 58 58 58 59 59 60 61
24 24 24 26 26 27 26 26 26 26 26 26 27 27 27 27 27 27 27 27 27 27 28 29 30 30 30 31 31 32 33 33 34 34 35 35 36 37 37 38 39 40 40 41 41 42 42 42 42 42 43 44 44 44 45 45 46 47 48 49 49 50 51 52 52 53 54 54 55 55 56 56 57 57 57 57 58 58 59 59 59 60 60 61 61
25 25 25 26 27 28 28 27 26 26 27 27 27 27 27 28 28 28 28 29 28 28 29 30 31 31 31 31 31 32 32 33 33 33 34 34 35 36 37 38 39 40 41 42 42 42 43 43 44 44 45 45 45 45 45 46 46 47 47 48 48 49 50 50 51 52 53 53 54 55 56 56 57 57 58 58 59 59 60 60 61 62 62 63 63
27 26 26 26 27 28 29 28 28 28 28 28 28 28 28 29 29 29 29 30 30 30 30 30 31 31 31 31 31 31 31 31 32 32 33 33 34 35 36 38 39 40 41 41 42 42 43 43 44 44 45 45 46 46 46 46 47 48 49 49 50 51 51 52 52 52 53 54 55 56 57 58 58 59 59 60 60 61 61 62 63 64 65 66 66
28 27 27 27 27 28 29 29 30 29 29 29 29 30 30 30 30 31 31 31 31 31 30 30 30 31 31 31 31 31 31 31 32 32 33 34 34 35 36 37 38 39 40 40 40 41 42 42 43 44 44 45 46 46 47 47 49 50 51 52 53 54 54 55 55 56 57 58 59 60 61 61 62 62 62 63 63 64 64 65 66 67 67 68 69
28 28 28 28 28 29 29 30 31 31 31 30 31 31 31 31 31 32 32 32 32 31 31 31 31 31 31 31 32 31 31 31 32 32 33 34 34 35 35 36 37 37 38 39 40 41 43 44 44 45 46 47 48 48 49 50 51 52 54 55 55 56 57 58 58 59 60 61 61 62 62 63 63 64 64 65 65 66 67 67 68 69 70 71 72
29 30 29 29 29 30 30 31 32 32 32 32 32 33 33 33 33 33 33 33 33 33 33 32 32 32 32 32 32 32 32 32 32 32 33 33 34 34 35 36 37 38 40 41 42 44 45 46 47 48 49 50 50 51 52 53 54 56 57 58 59 60 60 61 62 62 63 64 64 64 64 64 65 65 66 67 68 68 69 70 71 72 73 74 75
31 31 31 31 31 31 31 32 33 34 34 34 34 34 34 34 34 35 35 35 35 35 34 34 34 34 34 34 34 34 34 34 34 35 35 35 36 37 38 39 40 42 43 44 45 46 46 47 48 49 51 52 53 54 55 56 57 59 60 61 62 63 64 65 66 67 67 68 68 68 68 68 68 68 69 70 70 71 72 73 74 76 77 78 80
32 32 32 32 32 33 33 33 34 34 35 35 35 35 35 35 36 36 36 36 36 36 36 36 36 36 36 36 36 36 37 37 38 38 39 39 40 41 42 43 44 45 46 46 47 48 49 49 50 51 53 54 55 57 58 59 60 61 62 63 65 66 67 68 69 70 71 71 72 72 72 72 72 72 73 73 74 75 76 78 79 80 81 82 84
32 33 33 33 33 34 34 34 35 35 36 36 37 37 37 37 37 37 37 38 38 38 38 38 38 38 38 39 39 39 39 40 41 42 42 43 43 44 45 46 46 47 48 49 50 51 51 52 53 54 55 56 57 58 59 60 61 62 63 65 66 68 69 70 71 72 73 74 74 74 75 75 75 76 77 77 79 80 81 82 83 84 85 87 89
32 33 34 34 35 35 35 36 36 36 37 37 38 38 39 39 39 39 39 39 40 41 41 41 41 41 41 41 42 42 42 43 44 44 45 46 46 47 48 48 49 50 51 52 53 54 54 55 56 57 58 59 59 60 61 62 63 64 65 67 68 70 71 73 74 75 76 76 77 77 77 78 78 79 80 81 82 83 84 85 86 87 89 91 93
33 33 35 35 36 36 36 37 37 37 38 38 39 39 40 40 41 41 42 42 42 43 43 43 43 43 43 44 44 45 45 45 46 47 48 49 50 50 50 51 52 53 54 55 56 57 58 59 59 60 60 61 62 62 63 64 65 66 68 69 71 73 74 76 77 78 78 79 79 80 80 81 81 82 83 84 84 85 86 87 88 90 91 93 95
34 34 35 36 37 37 37 38 38 38 39 39 40 41 41 42 43 43 44 44 45 45 45 45 45 45 45 46 46 47 47 48 49 50 51 51 52 52 53 54 55 55 57 58 59 60 60 61 61 62 63 63 64 65 66 67 68 69 70 72 74 76 77 78 79 79 80 80 81 82 82 83 83 84 85 85 86 87 88 90 91 93 94 95 97
35 35 36 36 37 38 38 38 39 40 39 40 41 42 43 43 44 45 46 46 47 47 47 47 47 47 47 47 48 49 49 50 51 51 52 53 54 54 55 56 57 58 59 60 61 62 62 63 63 64 64 65 65 66 67 69 70 71 73 75 77 78 79 80 80 81 81 81 82 83 84 84 85 86 86 87 88 89 91 92 94 95 97 99 100
36 36 37 37 37 38 39 39 40 41 41 41 42 43 44 45 46 47 48 48 49 49 49 49 49 48 49 49 50 51 51 52 53 54 55 55 56 57 58 59 60 61 61 62 63 63 64 64 65 65 66 66 67 68 70 71 73 74 76 78 79 80 81 81 81 82 82 83 84 85 86 87 87 88 89 90 91 92 94 95 97 99 100 102 103
38 38 38 38 38 39 39 40 41 42 42 43 44 44 44 45 47 48 49 50 50 51 51 51 51 51 51 52 52 53 54 54 55 56 57 58 59 59 60 61 62 63 63 64 65 65 65 66 66 66 67 68 69 71 73 74 75 77 78 80 81 82 82 82 83 84 84 85 86 87 88 89 90 91 92 93 94 96 97 98 100 102 103 104 106
38 39 39 39 40 40 40 41 42 43 43 44 45 46 46 46 47 48 49 50 51 52 52 53 53 53 53 54 54 55 55 56 57 58 58 59 60 61 61 62 63 64 65 65 66 66 67 67 67 68 69 70 72 73 75 76 77 79 81 82 83 83 83 84 85 85 86 87 88 90 91 92 93 94 95 96 98 99 100 101 103 104 106 107 109
39 39 40 40 41 41 41 42 43 44 44 45 46 47 47 47 47 48 49 50 51 52 53 53 54 55 55 56 56 56 57 58 59 59 60 60 61 62 63 63 64 65 66 67 67 67 68 68 68 69 71 73 74 76 77 78 79 81 83 84 84 84 85 86 86 87 88 89 91 92 94 95 96 97 98 100 101 102 103 105 106 108 109 110 112
40 40 41 42 43 43 43 43 44 46 46 46 47 48 48 49 49 49 50 51 52 53 53 54 55 56 57 57 58 58 59 60 61 62 62 63 63 64 64 65 66 67 67 68 68 68 69 69 70 72 73 75 77 78 79 81 82 84 85 85 85 86 86 87 88 89 90 92 94 95 96 98 99 100 102 103 104 106 107 108 110 111 112 114 116
42 43 43 43 43 44 45 45 46 47 48 48 49 50 50 51 51 51 52 53 54 54 55 56 57 57 58 59 59 60 62 63 63 64 64 65 65 66 66 67 68 68 69 69 69 69 70 71 73 75 76 78 79 80 82 84 85 85 86 86 87 87 89 90 91 92 93 95 97 98 99 101 102 104 105 106 108 109 110 111 113 115 116 118 120
44 45 46 46 45 45 46 46 48 49 50 50 51 52 52 53 53 54 55 55 56 57 58 58 59 60 60 61 62 63 64 65 65 66 66 67 67 68 68 69 69 69 70 70 70 71 72 74 76 77 78 79 81 82 84 86 86 86 87 88 89 90 91 92 93 95 96 98 100 101 103 104 105 107 108 109 110 111 113 115 117 119 120 122 124
46 46 47 47 47 48 48 48 49 50 51 52 53 54 54 55 55 56 57 58 58 59 60 61 61 62 63 64 65 66 67 67 68 68 68 69 69 70 70 70 70 70 71 71 72 73 74 76 78 79 80 81 83 84 85 86 87 87 88 90 91 92 93 94 96 97 99 100 102 104 106 107 109 110 111 112 113 114 116 118 120 122 124 125 127
48 48 49 49 49 49 50 50 50 51 52 53 54 55 56 56 57 58 59 60 60 61 62 63 64 65 65 66 67 68 69 69 69 70 70 71 71 71 71 71 71 71 72 72 73 75 76 77 79 80 81 82 83 85 86 87 88 89 90 91 93 94 95 96 98 99 101 103 104 106 108 109 111 113 114 116 117 119 121 122 124 125 127 128 129
49 50 51 51 50 51 51 51 52 53 53 54 55 56 57 57 58 59 61 61 62 63 64 65 65 66 67 68 69 69 70 70 70 71 71 71 71 71 71 71 71 72 73 74 75 76 77 78 79 80 81 82 84 85 86 87 88 90 91 93 95 96 97 98 100 102 104 105 107 108 109 111 114 116 118 119 121 123 124 125 127 128 129 130 132
Wind_Direction
206 208 210 209 209 208 210 216 221 224 224 226 232 239 242 242 243 242 242 242 242 241 241 240 239 238 238 238 240 239 236 236 241 245 247 248 247 244 242 242 242 242 242 243 245 246 246 247 247 247 247 247 247 249 249 248 248 248 248 248 248 249 250 250 251 251 252 253 253 253 254 254 255 255 256 257 257 257 258 258 259 259 260 261 261
207 213 217 217 217 218 221 225 228 230 231 229 229 233 238 240 242 243 244 245 245 244 243 242 241 239 238 238 239 241 238 236 239 244 247 248 249 248 245 244 243 244 243 244 246 248 248 248 248 248 248 248 248 249 250 250 251 251 252 252 252 252 252 252 252 253 254 255 255 256 256 257 258 258 259 259 260 261 261 261 261 262 263 263 264
210 216 222 223 224 226 229 232 233 236 236 233 233 234 236 238 240 243 244 246 247 246 245 244 243 240 239 238 238 240 240 238 238 242 245 248 249 250 249 247 246 245 244 245 247 249 250 250 249 249 249 250 250 250 251 251 252 253 254 255 256 257 256 256 255 256 256 257 257 258 258 259 260 260 261 262 262 263 263 264 264 265 265 266 267
214 218 224 227 229 233 237 238 239 240 239 238 239 240 240 240 241 244 244 245 246 246 245 244 243 240 238 238 237 239 240 240 240 241 243 246 249 250 251 251 250 249 247 246 247 249 251 252 252 251 250 250 251 252 252 253 254 255 256 257 258 259 260 259 259 259 260 261 261 262 262 262 262 262 263 263 264 264 265 265 266 266 267 267 268
217 219 224 230 234 239 244 245 245 246 245 243 244 245 245 245 245 246 246 245 244 244 244 242 242 240 238 238 238 239 241 242 243 242 243 245 248 250 251 253 254 253 252 250 249 249 251 253 254 254 252 251 251 252 253 254 256 257 258 259 261 261 262 262 262 263 264 265 266 266 266 266 266 266 266 266 266 266 267 267 268 268 268 269 269
217 220 224 229 234 240 245 247 248 248 248 247 248 248 248 249 249 248 248 246 244 243 242 241 242 240 238 239 239 239 241 243 245 245 245 245 248 251 252 254 255 256 256 255 254 253 253 254 255 256 256 254 253 253 254 255 256 258 259 261 263 264 264 265 266 268 269 269 270 270 270 270 270 269 269 269 270 270 270 270 270 270 271 271 271
215 218 222 227 231 237 241 244 245 247 248 249 250 251 250 251 250 250 250 248 246 244 243 242 243 241 239 239 240 241 242 244 246 246 246 246 247 250 252 254 255 257 258 258 257 257 256 256 257 258 259 259 257 256 255 255 257 258 259 261 262 264 265 266 268 269 271 271 272 272 273 273 272 272 272 272 272 272 272 272 272 272 272 272 272
215 217 219 223 227 232 235 239 242 244 246 248 249 250 249 250 250 251 251 251 250 248 247 245 244 242 240 241 241 242 244 245 246 245 245 246 247 249 251 253 255 257 258 258 259 259 259 259 260 261 262 263 263 261 259 258 258 258 259 260 262 264 266 267 268 270 272 273 273 273 273 274 274 273 273 273 272 272 272 272 272 272 272 272 272
218 219 220 223 226 229 233 236 239 241 243 245 246 246 246 247 249 249 249 249 250 250 249 247 245 244 242 243 243 244 246 247 247 244 244 246 248 250 251 254 256 258 259 259 260 260 261 261 263 264 265 266 266 266 265 264 263 263 263 264 265 267 268 269 270 272 273 274 274 274 274 274 274 273 273 273 273 272 272 272 272 272 272 272 273
223 223 223 225 227 230 233 236 238 240 242 244 245 245 245 246 247 246 245 245 246 247 247 246 245 244 244 244 245 246 247 248 248 245 245 247 249 251 253 255 257 258 260 260 261 262 263 263 264 265 266 266 267 267 268 270 271 272 272 272 272 273 273 273 273 274 275 276 276 276 275 275 274 274 274 274 273 273 273 273 273 273 274 274 274
226 227 228 228 230 232 234 237 239 241 242 244 245 246 246 246 247 246 244 243 243 243 244 243 242 242 243 244 245 246 248 248 248 246 246 248 250 252 253 255 257 258 260 261 262 264 265 266 266 266 266 266 266 267 268 270 272 274 276 277 278 278 279 278 278 277 278 278 278 277 276 276 275 275 275 275 275 274 274 274 274 274 274 275 275
230 230 231 232 233 234 236 239 241 242 243 244 245 245 246 246 247 246 245 244 244 244 244 244 242 242 242 243 245 246 247 248 248 247 248 249 251 253 254 256 258 259 261 262 263 265 266 267 267 267 267 266 267 267 269 270 271 273 274 276 277 278 279 279 279 279 279 279 279 278 277 275 274 274 274 275 275 275 275 275 275 275 275 276 277
241 238 238 239 239 240 240 241 243 244 246 247 247 247 246 246 246 246 246 246 246 247 247 247 247 246 246 246 247 248 249 249 250 250 250 251 252 253 255 257 259 261 263 264 266 267 267 267 268 268 267 267 266 267 268 269 271 272 273 275 275 276 276 277 276 277 277 277 277 277 277 275 274 274 274 274 274 275 275 275 275 275 276 278 279
251 249 247 247 248 247 247 247 247 247 248 248 248 248 248 247 246 246 245 246 246 247 248 248 249 249 249 249 250 250 251 251 251 251 251 252 253 255 256 258 260 262 263 265 266 267 268 268 268 268 267 266 266 267 268 269 270 272 273 273 273 273 274 274 273 274 274 274 274 274 274 274 274 273 273 273 273 274 274 274 274 275 277 278 279
262 260 257 256 255 254 253 252 251 251 251 251 250 249 248 248 247 247 246 247 248 248 248 248 249 249 250 251 252 252 253 253 253 253 253 253 254 255 257 258 259 261 262 263 263 264 265 266 267 267 266 265 265 266 267 268 270 271 271 271 271 271 271 271 271 271 271 272 272 272 271 272 272 272 272 273 273 273 273 274 275 276 277 278 279
270 268 266 263 262 260 258 256 254 253 254 254 253 252 251 250 249 248 248 249 250 250 250 251 251 251 251 251 252 253 254 255 254 254 254 254 255 255 257 258 259 260 260 261 262 262 263 264 264 265 265 265 266 266 267 268 269 269 269 269 269 270 270 270 270 270 271 271 271 271 271 271 271 272 272 273 273 274 274 275 276 276 277 278 278
270 269 269 268 266 265 263 260 258 256 255 255 255 254 254 253 252 250 250 250 250 251 251 252 253 254 253 253 253 253 254 255 255 255 255 255 256 257 258 259 260 260 261 261 261 262 262 262 263 263 264 265 266 267 267 268 268 269 269 269 269 270 270 270 270 270 270 271 271 271 271 272 272 272 272 273 273 274 274 275 276 276 277 277 278
267 267 268 267 267 266 265 263 262 261 260 259 257 256 255 253 252 251 251 250 250 250 251 252 253 254 254 254 254 255 255 256 256 256 256 256 256 257 258 259 260 261 261 261 261 262 262 262 263 264 264 265 266 267 267 268 268 269 269 269 270 270 270 270 270 270 270 270 270 271 271 271 271 272 272 273 273 274 274 275 275 276 276 277 277
265 266 266 265 264 264 264 265 265 264 263 263 262 261 260 258 255 253 251 250 250 250 250 250 251 253 254 255 255 256 256 256 257 257 257 257 257 257 258 259 260 260 261 261 261 262 262 263 263 264 264 265 266 267 267 268 268 269 269 269 269 269 269 269 269 269 269 270 270 270 270 270 271 271 272 272 272 273 273 274 274 275 275 276 276
263 263 263 262 262 262 263 264 264 264 264 264 264 264 264 264 263 261 259 257 254 253 252 253 253 253 254 255 256 256 256 257 257 258 259 259 258 257 258 259 260 261 261 262 262 262 263 263 264 264 264 265 265 266 266 267 267 267 268 268 268 268 268 269 269 269 269 269 270 270 270 270 270 271 271 272 272 273 273 273 274 274 275 275 275
265 263 262 261 261 262 262 262 261 261 261 262 262 262 263 263 263 263 263 263 262 261 260 259 258 258 258 258 258 258 258 258 259 260 261 262 261 259 259 260 261 262 262 262 263 263 263 263 264 264 264 265 265 265 265 266 266 267 268 268 269 269 270 271 271 272 272 272 273 273 273 273 274 274 274 274 275 275 276 276 276 277 277 277 277
267 266 264 263 263 263 262 261 261 260 259 259 259 260 261 260 260 260 260 261 262 262 263 264 263 263 262 261 261 261 260 261 262 263 264 265 265 264 263 263 263 264 264 264 264 264 264 264 265 265 266 267 267 268 269 270 270 271 272 272 273 273 274 274 275 275 276 276 276 276 276 276 277 277 278 278 278 278 279 279 280 280 280 280 280
264 265 265 265 265 264 264 263 263 262 261 260 259 259 259 259 258 259 259 260 262 262 262 262 262 261 260 260 260 261 262 262 263 264 265 266 267 267 266 266 266 267 268 269 269 269 270 270 271 272 272 273 273 274 274 274 274 275 275 275 275 275 275 276 276 276 276 276 276 277 277 277 278 278 278 279 279 279 279 280 280 281 281 281 281
260 262 264 265 265 264 263 263 264 264 264 263 261 259 258 258 258 260 261 262 263 262 261 260 259 259 259 259 260 260 261 262 262 262 263 265 266 267 267 267 267 268 269 271 272 273 275 276 276 276 276 276 276 276 275 275 275 274 274 275 275 275 275 275 275 275 275 276 276 277 277 277 278 278 278 279 279 279 279 280 280 280 281 281 281
261 260 262 264 265 265 264 263 263 263 264 263 262 260 258 259 260 261 262 262 262 262 261 261 260 260 261 261 262 262 262 262 262 263 263 265 266 267 268 269 269 270 270 272 273 274 274 275 275 274 274 274 274 274 274 274 274 274 274 275 275 275 275 275 275 275 275 276 277 277 278 278 279 279 279 280 280 280 281 281 281 281 281 281 281
265 263 262 263 265 266 266 265 265 265 264 263 261 261 261 261 261 261 261 261 261 262 263 263 262 263 263 264 265 265 265 265 265 266 266 267 269 270 271 271 272 272 273 273 273 274 274 274 274 274 274 274 275 275 276 276 276 276 276 276 276 276 276 277 277 277 277 277 278 278 278 279 279 280 280 281 281 281 282 282 282 283 283 283 283
267 267 266 264 263 264 266 267 267 267 266 264 263 264 265 265 263 262 262 261 262 263 264 264 263 263 264 265 266 266 266 267 267 268 270 271 272 273 274 275 275 274 274 273 273 274 274 275 276 276 277 277 277 278 278 278 279 279 278 278 278 278 278 278 278 278 278 278 278 279 279 279 280 280 281 281 282 282 283 283 284 284 285 285 285
268 269 269 268 266 265 265 267 268 267 267 267 268 268 269 269 269 268 266 266 266 266 266 265 264 264 264 265 266 267 267 268 269 271 272 274 275 276 277 278 278 277 277 277 276 276 277 277 277 277 278 278 279 279 279 279 280 280 279 279 279 279 279 279 279 279 279 279 279 280 280 280 280 281 281 282 282 282 283 283 284 284 284 285 285
271 271 270 271 271 270 268 268 268 268 269 269 271 272 272 272 273 273 273 272 272 271 270 270 269 269 268 268 268 268 269 270 271 272 273 274 275 277 278 279 279 280 280 280 280 280 280 280 279 278 278 278 278 278 277 278 278 279 279 279 279 280 280 280 280 280 280 280 281 281 281 281 281 282 282 282 282 283 283 283 283 283 284 284 284
275 274 272 272 273 274 273 271 270 270 270 270 271 272 273 273 274 274 275 276 275 275 275 275 275 276 275 274 273 273 273 273 274 275 275 275 276 277 277 278 278 279 279 280 280 280 280 279 279 278 278 278 278 278 278 279 280 280 281 281 281 281 281 281 281 281 281 281 281 281 281 281 281 281 281 281 281 282 282 282 283 283 283 283 284
277 276 274 273 273 274 275 275 274 273 272 272 273 273 273 274 276 276 276 277 278 278 277 278 278 279 279 278 277 277 276 277 277 277 277 276 276 276 276 276 277 277 277 278 278 277 277 277 276 276 276 277 278 278 279 280 281 281 281 281 281 280 280 280 280 280 280 280 280 279 279 279 279 279 279 279 280 280 281 281 281 282 282 283 283
278 278 276 275 275 274 275 276 276 276 275 276 275 276 277 277 278 279 279 279 279 279 278 278 279 279 279 279 279 278 278 277 277 276 275 275 274 274 274 274 275 276 276 275 275 275 275 275 275 276 277 278 278 279 279 279 279 279 279 279 279 279 279 278 278 278 277 278 278 279 279 279 279 279 279 279 280 281 281 282 283 283 283 284 284
279 279 277 276 276 275 275 276 276 277 278 278 278 279 280 280 280 280 280 280 279 279 278 278 278 278 278 278 278 278 277 276 275 274 274 273 274 273 272 272 271 271 272 273 275 276 277 279 280 281 281 282 282 282 282 282 282 281 281 281 281 281 280 279 278 278 278 278 278 279 280 280 280 280 280 281 281 282 283 284 284 285 286 286 286
280 279 278 277 277 276 276 277 277 278 279 280 280 281 281 281 281 281 280 280 280 280 279 279 278 278 277 277 277 276 276 275 273 272 271 270 270 270 270 270 270 271 272 274 276 278 281 283 285 286 287 287 287 288 288 288 288 289 289 288 288 288 287 286 285 284 283 283 282 283 283 283 283 284 284 285 286 286 287 287 288 289 289 290 291
282 281 280 279 278 277 278 277 278 279 280 281 281 281 281 281 281 281 281 281 281 280 280 279 279 278 277 276 275 274 273 272 271 270 269 269 269 270 271 273 275 276 278 279 280 282 283 285 287 289 290 291 292 292 292 293 293 294 294 295 295 295 294 293 293 292 291 290 289 289 290 290 290 290 290 290 291 291 292 292 293 293 294 294 295
282 281 281 280 279 279 279 279 279 280 281 282 281 281 280 280 280 280 280 280 280 280 280 279 278 277 276 275 273 272 271 271 271 271 271 272 273 275 276 277 279 280 281 283 284 285 286 287 288 289 290 291 292 293 294 294 295 295 296 296 296 296 296 296 295 295 295 295 295 295 295 295 295 295 295 295 295 295 295 295 295 296 296 296 296
280 280 280 280 279 280 280 280 280 280 281 281 281 281 280 279 279 278 278 278 278 278 278 278 277 276 275 274 274 273 272 272 272 273 274 276 277 278 279 280 281 282 283 283 285 286 287 288 289 290 290 291 292 293 293 294 294 294 295 295 295 295 295 295 295 295 296 296 296 297 297 297 297 297 297 297 296 296 296 296 297 297 298 298 298
279 278 279 279 280 280 280 280 281 281 281 281 280 280 279 279 278 277 276 276 276 276 277 277 277 276 275 275 274 274 273 274 274 275 276 277 279 280 281 282 282 283 284 284 285 287 288 289 290 291 291 292 292 293 293 293 293 294 294 295 295 295 295 296 296 296 297 297 297 297 297 297 297 297 297 297 296 296 297 297 298 298 299 299 299
279 278 278 279 279 280 280 280 280 280 280 279 279 278 277 277 276 275 275 275 275 275 276 276 275 275 275 275 274 274 274 275 275 276 277 278 279 280 281 282 283 284 285 285 286 287 288 289 290 291 292 292 292 292 292 293 293 294 295 296 296 297 297 297 297 297 297 298 298 298 298 298 297 297 297 296 296 297 297 298 298 298 298 298 297
281 280 279 278 279 279 280 280 280 280 280 279 278 276 275 274 274 274 274 274 275 275 275 275 275 275 274 274 274 274 275 275 276 277 277 278 279 280 281 281 282 283 284 285 285 286 287 288 289 290 291 291 291 292 292 293 294 295 295 296 296 297 297 297 297 297 298 298 298 297 297 296 296 296 296 296 297 297 298 298 298 297 297 296 296
282 281 279 278 278 278 279 280 280 280 279 278 277 275 274 273 273 273 273 274 274 275 275 275 275 275 274 274 274 275 275 275 275 276 276 277 278 279 279 280 281 282 283 284 285 286 287 288 289 290 290 291 291 292 292 293 293 294 295 296 296 296 296 296 297 297 297 297 297 296 296 296 296 296 297 297 297 297 297 297 296 296 295 295 295
281 280 279 278 278 278 278 278 278 278 278 277 276 275 274 274 273 273 273 274 274 275 276 276 276 276 275 275 275 276 276 276 276 277 277 278 279 280 281 282 283 284 285 285 286 287 288 289 290 290 290 290 291 291 292 292 293 294 295 296 296 296 296 296 296 296 296 296 296 296 296 296 297 297 297 297 297 297 296 296 296 295 295 295 294
280 280 280 279 278 277 277 277 277 277 277 277 276 276 275 274 274 273 274 274 275 276 276 276 277 277 277 277 277 277 277 278 278 279 280 281 282 283 284 285 285 286 287 287 288 288 289 289 289 289 289 289 290 290 291 292 293 295 295 296 296 296 296 296 296 296 296 297 297 297 297 297 297 297 297 297 297 296 296 296 295 295 295 295 295
278 279 279 279 278 277 277 277 276 276 276 277 277 276 276 275 275 274 275 275 275 276 276 277 277 277 278 277 278 278 278 279 279 280 281 282 283 284 285 286 287 288 288 288 288 288 288 288 288 288 288 288 289 290 292 292 293 294 295 295 295 295 295 295 296 296 297 298 298 297 297 297 297 297 297 296 296 296 296 296 295 295 295 295 295
277 277 278 278 277 276 276 276 276 276 277 277 276 276 276 276 276 276 276 276 276 276 276 277 277 277 277 278 278 278 279 280 281 282 283 284 285 286 286 287 288 288 288 288 287 287 287 287 287 288 288 289 290 291 292 293 294 295 295 295 295 295 296 296 297 297 297 297 297 296 296 296 296 296 296 296 296 296 296 296 296 296 296 297 297
278 277 276 276 276 276 277 276 276 276 276 277 277 277 277 277 277 277 277 276 276 276 276 277 277 277 278 278 279 279 280 281 282 283 284 285 286 286 287 287 287 288 287 287 287 287 287 287 287 288 289 290 291 292 292 293 294 295 295 295 296 296 296 296 297 297 297 296 296 296 296 296 297 297 297 297 297 297 297 297 297 298 298 299 299
278 278 277 276 276 276 276 276 276 276 276 276 276 277 277 277 277 277 277 276 276 276 277 277 278 279 279 279 280 281 282 282 283 284 285 286 286 286 286 287 287 287 287 287 287 287 287 287 288 290 291 291 292 292 293 294 294 295 295 295 296 296 296 296 297 297 296 296 296 296 296 297 297 297 297 297 297 298 298 298 299 299 300 300 300
278 278 278 278 278 277 276 276 276 276 276 277 277 277 277 277 278 278 278 278 278 278 278 279 280 280 280 280 281 282 282 283 284 285 285 286 286 286 286 286 287 287 288 288 288 288 288 289 290 291 292 292 293 293 294 294 295 295 296 296 296 296 296 296 297 297 296 296 297 297 297 297 297 297 297 297 298 298 299 299 300 300 300 300 299
278 278 278 279 278 278 277 276 276 276 276 276 276 277 277 278 278 278 279 279 279 279 280 280 280 280 281 281 282 282 283 284 285 285 286 286 286 286 286 287 287 288 288 289 289 289 290 291 291 292 292 293 293 293 294 295 295 296 296 296 296 296 296 296 296 296 296 296 296 297 297 297 297 297 298 298 298 299 299 300 300 300 300 299 299
280 280 279 278 278 278 277 277 276 276 276 276 276 276 277 277 278 278 278 278 279 279 279 280 280 281 281 281 282 283 284 284 285 285 286 286 286 287 287 288 289 289 289 289 289 290 290 291 291 291 292 292 293 293 294 295 295 296 296 296 296 296 296 296 296 296 296 296 296 297 297 298 298 298 298 299 299 299 300 300 299 299 299 299 298
280 279 279 279 279 278 278 277 277 276 276 276 276 277 277 277 277 277 277 278 278 279 279 280 281 281 282 282 283 284 284 285 286 286 287 287 288 288 289 289 289 289 289 289 289 289 290 290 290 291 292 292 293 293 294 295 295 296 296 295 295 296 296 295 296 296 296 296 296 297 297 298 298 298 299 299 299 299 299 299 299 298 298 297 297
Height
10843 10843 10843 10844 10844 10844 10843 10844 10845 10846 10847 10848 10849 10849 10849 10850 10851 10852 10853 10854 10855 10855 10856 10857 10859 10860 10860 10860 10859 10860 10863 10864 10864 10864 10865 10866 10865 10866 10867 10867 10868 10869 10869 10870 10870 10871 10871 10872 10872 10873 10873 10874 10874 10875 10876 10876 10877 10878 10879 10879 10879 10879 10880 10880 10881 10881 10881 10882 10882 10882 10882 10881 10881 10881 10880 10880 10879 10879 10878 10878 10878 10878 10878 10878 10877
10841 10840 10840 10841 10841 10841 10840 10842 10844 10844 10845 10845 10846 10847 10847 10848 10848 10849 10850 10850 10852 10852 10853 10854 10855 10856 10857 10858 10857 10857 10860 10862 10863 10863 10864 10864 10863 10863 10864 10865 10867 10867 10867 10868 10868 10869 10869 10870 10870 10870 10871 10871 10872 10872 10873 10873 10874 10875 10876 10877 10877 10877 10877 10877 10878 10878 10878 10878 10879 10879 10878 10878 10878 10878 10877 10877 10876 10876 10875 10875 10875 10875 10875 10874 10874
10839 10837 10837 10838 10838 10838 10838 10840 10843 10843 10844 10844 10844 10845 10845 10845 10846 10846 10847 10847 10848 10849 10850 10850 10851 10852 10854 10855 10855 10855 10856 10859 10861 10861 10862 10861 10860 10860 10861 10863 10864 10864 10865 10866 10866 10866 10867 10867 10868 10868 10868 10869 10869 10870 10870 10871 10872 10872 10873 10874 10874 10874 10875 10875 10875 10875 10875 10875 10875 10875 10875 10875 10875 10875 10874 10874 10873 10873 10872 10872 10871 10871 10871 10871 10870
10838 10837 10835 10836 10836 10836 10837 10839 10840 10842 10842 10842 10843 10843 10843 10843 10843 10843 10843 10844 10844 10845 10846 10847 10847 10848 10850 10851 10852 10852 10853 10856 10858 10859 10859 10859 10858 10858 10859 10860 10861 10862 10863 10863 10864 10864 10864 10865 10865 10866 10866 10867 10867 10868 10868 10869 10869 10870 10870 10871 10871 10871 10872 10872 10872 10872 10873 10873 10872 10872 10872 10872 10872 10871 10871 10870 10870 10869 10869 10868 10868 10867 10867 10866 10866
10838 10838 10836 10836 10835 10835 10836 10837 10838 10839 10840 10841 10841 10840 10840 10840 10840 10840 10840 10841 10842 10842 10843 10844 10844 10846 10847 10848 10849 10850 10851 10853 10855 10857 10857 10857 10856 10857 10857 10857 10858 10859 10860 10861 10862 10862 10862 10863 10863 10864 10864 10864 10865 10865 10866 10866 10867 10867 10868 10869 10869 10869 10869 10869 10869 10869 10869 10869 10869 10869 10869 10869 10868 10868 10867 10867 10866 10866 10865 10864 10864 10863 10863 10862 10861
10838 10838 10838 10838 10836 10836 10836 10836 10837 10838 10838 10838 10839 10839 10838 10838 10838 10838 10838 10839 10839 10840 10841 10842 10842 10843 10845 10846 10847 10849 10850 10851 10853 10854 10855 10855 10855 10856 10855 10856 10856 10857 10858 10859 10859 10860 10860 10860 10861 10861 10862 10862 10862 10863 10863 10864 10864 10865 10866 10867 10867 10866 10866 10866 10865 10865 10865 10865 10865 10865 10865 10865 10865 10864 10864 10863 10862 10862 10861 10860 10859 10859 10858 10857 10857
10836 10837 10838 10838 10838 10838 10837 10837 10837 10837 10837 10837 10837 10837 10837 10836 10836 10836 10837 10837 10838 10838 10839 10840 10841 10842 10843 10845 10846 10847 10849 10850 10851 10852 10853 10853 10854 10854 10854 10854 10854 10854 10855 10856 10857 10857 10857 10857 10858 10858 10859 10860 10860 10860 10860 10860 10861 10862 10863 10864 10864 10863 10862 10862 10862 10862 10861 10861 10861 10861 10861 10860 10860 10859 10859 10858 10857 10856 10856 10855 10854 10854 10853 10852 10851
10835 10836 10836 10837 10837 10837 10836 10836 10836 10836 10836 10835 10835 10835 10835 10835 10835 10835 10835 10836 10836 10837 10838 10839 10840 10840 10842 10843 10845 10846 10847 10848 10849 10850 10851 10851 10851 10851 10851 10852 10852 10852 10853 10853 10854 10854 10854 10855 10855 10856 10856 10857 10857 10857 10857 10857 10858 10859 10860 10861 10860 10858 10858 10858 10859 10858 10858 10857 10857 10856 10856 10855 10854 10854 10853 10852 10851 10850 10850 10849 10848 10848 10847 10847 10846
10833 10834 10835 10835 10835 10835 10835 10834 10834 10834 10833 10833 10833 10833 10832 10832 10832 10833 10833 10834 10834 10835 10836 10837 10838 10839 10840 10842 10844 10845 10845 10846 10847 10847 10848 10849 10849 10849 10849 10850 10850 10850 10851 10851 10851 10852 10852 10852 10853 10853 10854 10854 10853 10853 10853 10853 10854 10855 10856 10857 10856 10855 10854 10854 10855 10855 10854 10853 10852 10851 10851 10850 10849 10848 10847 10846 10845 10844 10844 10843 10842 10842 10842 10841 10840
10832 10833 10833 10833 10834 10833 10833 10832 10832 10832 10831 10831 10831 10830 10830 10830 10830 10830 10831 10831 10831 10832 10833 10834 10835 10836 10838 10840 10842 10843 10843 10843 10844 10844 10845 10846 10846 10846 10847 10848 10848 10848 10849 10849 10849 10849 10850 10850 10850 10851 10851 10851 10850 10850 10850 10849 10849 10850 10850 10851 10851 10850 10850 10850 10850 10850 10849 10848 10848 10847 10846 10845 10844 10843 10842 10841 10840 10839 10838 10838 10837 10836 10836 10836 10835
10830 10831 10831 10831 10832 10831 10831 10831 10830 10830 10830 10829 10829 10829 10829 10828 10828 10829 10829 10829 10829 10829 10830 10831 10832 10833 10835 10837 10838 10839 10839 10839 10840 10841 10841 10842 10842 10843 10844 10845 10845 10846 10846 10846 10846 10846 10846 10847 10847 10847 10847 10847 10846 10846 10846 10845 10845 10845 10845 10845 10845 10844 10844 10844 10844 10844 10843 10843 10843 10842 10841 10840 10839 10838 10837 10836 10836 10834 10833 10833 10832 10831 10830 10830 10830
10828 10829 10829 10829 10829 10829 10829 10829 10829 10828 10828 10828 10828 10828 10827 10827 10827 10827 10827 10827 10827 10828 10828 10829 10830 10831 10832 10833 10834 10835 10835 10835 10836 10837 10838 10839 10839 10840 10841 10841 10841 10842 10842 10843 10843 10843 10843 10843 10843 10843 10843 10843 10843 10842 10842 10841 10841 10841 10841 10841 10840 10840 10839 10839 10839 10838 10837 10836 10836 10836 10835 10835 10834 10833 10832 10832 10830 10829 10828 10827 10827 10826 10825 10824 10824
10827 10827 10827 10827 10827 10827 10827 10827 10827 10827 10827 10827 10827 10826 10826 10826 10826 10826 10826 10826 10826 10827 10828 10828 10829 10830 10830 10831 10831 10832 10832 10833 10833 10834 10835 10836 10837 10837 10837 10838 10838 10839 10839 10839 10839 10839 10840 10839 10839 10839 10839 10839 10839 10838 10838 10837 10837 10837 10836 10836 10836 10835 10834 10834 10833 10832 10831 10830 10829 10829 10829 10829 10828 10828 10827 10826 10825 10824 10822 10822 10821 10820 10819 10818 10818
10825 10825 10825 10825 10825 10825 10825 10825 10825 10825 10825 10825 10825 10825 10824 10824 10824 10824 10824 10824 10824 10825 10826 10826 10827 10828 10828 10828 10829 10829 10830 10830 10830 10831 10832 10833 10833 10834 10834 10835 10835 10835 10836 10835 10835 10835 10835 10835 10835 10835 10835 10835 10835 10834 10834 10833 10833 10832 10832 10831 10831 10830 10829 10828 10827 10826 10826 10825 10824 10823 10823 10823 10822 10821 10821 10820 10819 10818 10816 10815 10815 10814 10813 10811 10811
10823 10823 10823 10823 10823 10823 10823 10823 10823 10823 10822 10822 10823 10822 10822 10822 10822 10822 10822 10822 10822 10823 10823 10824 10824 10825 10825 10825 10826 10826 10827 10827 10827 10828 10828 10829 10830 10830 10831 10831 10831 10832 10832 10832 10831 10831 10831 10831 10830 10830 10830 10830 10830 10830 10829 10829 10828 10828 10827 10826 10824 10823 10823 10822 10821 10820 10819 10818 10818 10817 10817 10816 10816 10815 10814 10813 10813 10812 10811 10810 10809 10808 10807 10805 10804
10821 10821 10821 10821 10821 10821 10821 10821 10820 10820 10820 10820 10820 10820 10820 10820 10820 10820 10820 10820 10820 10820 10821 10821 10822 10822 10822 10822 10822 10823 10823 10824 10824 10824 10824 10825 10826 10827 10827 10827 10827 10827 10828 10827 10827 10827 10826 10826 10826 10825 10825 10825 10825 10825 10825 10824 10823 10822 10821 10820 10819 10818 10817 10816 10815 10814 10813 10813 10812 10812 10811 10811 10810 10809 10808 10807 10807 10806 10805 10804 10803 10802 10800 10799 10798
10819 10819 10819 10819 10819 10819 10819 10818 10818 10818 10818 10818 10817 10817 10817 10818 10818 10818 10818 10818 10818 10818 10818 10818 10819 10819 10819 10819 10819 10820 10820 10820 10820 10820 10820 10821 10822 10823 10823 10823 10823 10823 10823 10822 10822 10822 10822 10821 10821 10821 10821 10821 10821 10820 10820 10819 10818 10817 10815 10814 10813 10812 10811 10810 10809 10808 10808 10807 10807 10806 10806 10805 10804 10803 10802 10801 10800 10800 10799 10798 10796 10796 10794 10793 10791
10818 10818 10818 10817 10817 10817 10817 10816 10816 10816 10816 10816 10815 10815 10815 10815 10815 10815 10815 10815 10815 10815 10816 10816 10816 10816 10816 10816 10816 10817 10817 10817 10816 10816 10816 10817 10819 10819 10819 10819 10819 10818 10818 10817 10817 10817 10817 10816 10816 10816 10816 10816 10815 10815 10814 10813 10812 10811 10810 10809 10808 10807 10806 10805 10804 10803 10803 10802 10801 10801 10800 10799 10798 10796 10795 10794 10794 10793 10792 10791 10790 10789 10787 10786 10784
10817 10817 10817 10816 10816 10815 10815 10815 10815 10815 10814 10814 10814 10814 10813 10813 10813 10813 10813 10813 10813 10813 10813 10813 10813 10813 10813 10813 10813 10814 10814 10814 10813 10813 10813 10813 10815 10816 10815 10815 10815 10814 10813 10813 10813 10813 10812 10812 10811 10811 10811 10810 10810 10809 10808 10808 10807 10806 10805 10803 10802 10801 10800 10799 10798 10798 10797 10796 10795 10794 10793 10792 10791 10790 10788 10787 10786 10786 10784 10783 10782 10781 10780 10778 10777
10816 10816 10815 10815 10815 10814 10814 10814 10813 10813 10813 10813 10813 10812 10812 10812 10811 10811 10811 10811 10811 10810 10810 10810 10811 10811 10811 10810 10810 10811 10811 10811 10810 10809 10809 10809 10811 10812 10812 10811 10811 10810 10809 10809 10809 10808 10808 10807 10806 10806 10806 10805 10805 10804 10803 10802 10801 10800 10799 10797 10796 10795 10794 10793 10792 10792 10791 10790 10789 10788 10787 10785 10784 10783 10782 10781 10780 10779 10778 10776 10775 10774 10773 10772 10770
10814 10814 10814 10813 10813 10813 10813 10812 10812 10812 10812 10812 10811 10811 10810 10810 10809 10809 10808 10808 10808 10808 10808 10808 10808 10808 10808 10808 10807 10808 10808 10808 10807 10806 10805 10805 10806 10807 10808 10808 10807 10806 10805 10805 10805 10804 10803 10802 10802 10801 10801 10800 10800 10799 10798 10797 10796 10795 10794 10793 10792 10791 10790 10789 10788 10788 10787 10786 10784 10783 10782 10781 10780 10779 10778 10777 10776 10774 10773 10771 10770 10770 10768 10766 10764
10812 10812 10812 10811 10811 10811 10811 10810 10810 10810 10810 10810 10810 10809 10809 10808 10807 10806 10806 10806 10806 10806 10806 10806 10806 10806 10805 10805 10804 10804 10805 10805 10804 10803 10802 10801 10801 10803 10804 10804 10804 10802 10801 10801 10800 10800 10799 10798 10798 10798 10797 10797 10796 10795 10795 10794 10793 10792 10791 10790 10789 10788 10787 10786 10785 10784 10783 10782 10780 10779 10778 10777 10776 10774 10773 10772 10771 10769 10768 10766 10765 10764 10763 10761 10759
10810 10810 10810 10809 10809 10809 10808 10808 10808 10808 10808 10808 10808 10807 10806 10805 10805 10804 10804 10804 10804 10804 10804 10804 10803 10803 10802 10802 10801 10801 10802 10802 10801 10800 10799 10798 10798 10799 10800 10801 10800 10799 10798 10797 10797 10796 10796 10796 10796 10795 10795 10794 10793 10793 10792 10791 10790 10789 10787 10786 10785 10784 10783 10782 10781 10779 10778 10776 10775 10774 10773 10772 10771 10769 10768 10766 10765 10764 10762 10761 10759 10757 10756 10755 10753
10809 10808 10808 10808 10807 10807 10806 10806 10806 10805 10806 10806 10806 10805 10804 10803 10802 10802 10802 10802 10802 10801 10801 10801 10801 10800 10799 10799 10799 10799 10799 10799 10798 10798 10797 10796 10795 10796 10796 10797 10797 10797 10796 10795 10794 10794 10794 10793 10793 10792 10792 10791 10790 10789 10788 10787 10786 10785 10783 10782 10781 10780 10779 10778 10776 10775 10773 10772 10770 10769 10768 10767 10766 10764 10763 10761 10759 10758 10756 10755 10754 10752 10751 10749 10747
10808 10807 10807 10806 10805 10805 10805 10804 10804 10804 10804 10804 10803 10802 10801 10801 10800 10800 10800 10800 10799 10799 10799 10799 10798 10798 10797 10797 10797 10797 10797 10796 10796 10795 10794 10793 10793 10793 10793 10793 10794 10794 10793 10793 10792 10792 10791 10790 10789 10788 10788 10787 10786 10785 10783 10782 10781 10781 10780 10779 10777 10776 10774 10773 10771 10770 10769 10767 10766 10765 10763 10762 10760 10759 10757 10755 10754 10752 10751 10749 10748 10746 10745 10743 10741
10805 10805 10805 10804 10803 10803 10802 10802 10802 10802 10802 10802 10800 10799 10799 10799 10799 10798 10798 10797 10797 10796 10796 10796 10796 10795 10795 10794 10794 10794 10794 10793 10792 10792 10791 10791 10790 10790 10790 10790 10791 10791 10790 10790 10789 10788 10787 10786 10785 10784 10783 10783 10782 10780 10779 10778 10777 10776 10775 10775 10773 10771 10770 10768 10766 10765 10764 10762 10761 10759 10758 10756 10755 10753 10751 10750 10748 10747 10745 10743 10741 10740 10738 10737 10735
10802 10802 10803 10802 10801 10801 10800 10800 10800 10800 10800 10799 10798 10797 10797 10797 10797 10796 10796 10795 10795 10794 10794 10794 10794 10793 10793 10792 10792 10791 10791 10790 10790 10789 10789 10788 10787 10787 10786 10786 10786 10787 10786 10786 10785 10784 10783 10783 10781 10780 10779 10778 10777 10776 10775 10773 10772 10771 10771 10770 10769 10767 10765 10763 10761 10760 10758 10757 10755 10754 10752 10751 10749 10747 10745 10744 10742 10741 10739 10737 10735 10734 10732 10730 10728
10800 10800 10800 10799 10798 10798 10798 10797 10797 10797 10797 10796 10796 10795 10795 10794 10794 10794 10793 10793 10793 10792 10792 10791 10791 10791 10790 10790 10789 10789 10788 10788 10787 10787 10786 10785 10784 10783 10783 10782 10781 10781 10781 10781 10781 10780 10779 10779 10778 10776 10775 10774 10773 10772 10771 10769 10768 10767 10766 10765 10764 10762 10761 10759 10757 10755 10753 10752 10750 10748 10746 10744 10743 10741 10739 10738 10736 10735 10733 10731 10729 10728 10726 10724 10722
10797 10797 10797 10796 10795 10795 10795 10795 10794 10794 10794 10794 10793 10793 10792 10792 10791 10791 10790 10790 10790 10790 10789 10788 10787 10787 10788 10787 10787 10786 10785 10785 10785 10784 10783 10783 10781 10780 10779 10778 10777 10777 10776 10776 10776 10775 10775 10774 10774 10773 10772 10771 10770 10769 10768 10766 10764 10763 10761 10760 10759 10757 10756 10754 10752 10750 10748 10746 10745 10742 10740 10738 10737 10735 10733 10732 10730 10728 10726 10725 10723 10721 10719 10717 10715
10794 10794 10794 10793 10792 10791 10791 10791 10792 10791 10791 10791 10790 10790 10790 10789 10789 10788 10788 10787 10787 10787 10786 10785 10784 10784 10784 10784 10783 10783 10783 10782 10781 10781 10780 10780 10779 10777 10776 10775 10774 10773 10772 10772 10772 10771 10771 10770 10770 10769 10768 10767 10766 10765 10764 10762 10760 10758 10756 10755 10754 10752 10750 10748 10747 10745 10743 10741 10739 10737 10735 10733 10731 10729 10727 10726 10724 10722 10720 10718 10716 10714 10712 10710 10708
10791 10791 10791 10791 10790 10789 10787 10787 10788 10788 10788 10788 10788 10787 10787 10786 10786 10785 10785 10784 10783 10783 10783 10782 10781 10780 10780 10780 10779 10779 10779 10778 10778 10777 10777 10776 10775 10774 10773 10772 10771 10770 10769 10768 10767 10767 10766 10766 10765 10764 10763 10762 10761 10760 10759 10758 10755 10753 10751 10750 10748 10747 10745 10743 10741 10739 10737 10735 10733 10731 10729 10727 10725 10723 10721 10719 10717 10715 10713 10712 10709 10707 10705 10703 10701
10788 10788 10788 10788 10788 10787 10785 10784 10784 10784 10784 10785 10784 10784 10784 10783 10783 10782 10781 10781 10780 10780 10779 10778 10778 10777 10776 10776 10775 10775 10775 10775 10774 10773 10772 10772 10771 10770 10770 10769 10767 10766 10765 10764 10763 10762 10761 10761 10760 10759 10758 10757 10756 10755 10755 10753 10750 10748 10746 10744 10743 10741 10739 10737 10735 10733 10731 10729 10727 10725 10723 10721 10719 10717 10715 10712 10710 10708 10706 10704 10701 10699 10697 10695 10692
10785 10785 10785 10785 10785 10784 10783 10782 10781 10781 10781 10781 10781 10780 10780 10780 10779 10778 10778 10777 10776 10776 10775 10775 10774 10773 10773 10772 10772 10771 10771 10771 10770 10769 10768 10768 10767 10766 10766 10765 10764 10763 10761 10760 10759 10757 10756 10756 10755 10754 10752 10751 10750 10749 10748 10746 10744 10742 10740 10738 10736 10734 10733 10731 10728 10727 10724 10722 10720 10718 10716 10714 10712 10709 10707 10705 10702 10700 10698 10695 10693 10690 10688 10685 10682
10782 10782 10782 10782 10782 10781 10781 10780 10779 10778 10778 10778 10778 10777 10777 10777 10776 10775 10774 10774 10773 10773 10773 10772 10771 10770 10770 10769 10768 10768 10767 10767 10766 10765 10765 10764 10763 10762 10761 10761 10760 10759 10758 10756 10755 10753 10752 10751 10750 10748 10746 10745 10743 10742 10740 10739 10737 10735 10733 10731 10729 10727 10725 10723 10721 10719 10717 10715 10712 10710 10708 10706 10704 10701 10699 10696 10694 10691 10689 10686 10684 10681 10678 10675 10672
10779 10779 10779 10779 10779 10778 10778 10778 10777 10776 10775 10775 10775 10774 10774 10773 10773 10772 10771 10771 10771 10770 10770 10770 10769 10768 10767 10766 10765 10765 10764 10763 10762 10761 10761 10760 10759 10758 10757 10756 10755 10754 10753 10751 10750 10749 10748 10747 10745 10743 10741 10739 10737 10735 10733 10732 10730 10728 10726 10723 10721 10719 10717 10715 10713 10711 10708 10706 10704 10702 10700 10697 10695 10693 10690 10687 10685 10682 10679 10676 10674 10671 10668 10665 10662
10776 10775 10775 10776 10776 10775 10775 10775 10774 10773 10772 10772 10772 10771 10771 10770 10770 10769 10768 10768 10767 10767 10767 10767 10766 10765 10764 10763 10763 10762 10761 10760 10758 10757 10757 10756 10755 10754 10753 10752 10751 10749 10748 10747 10745 10744 10743 10742 10741 10739 10736 10734 10732 10730 10728 10726 10724 10722 10719 10717 10715 10712 10710 10707 10705 10703 10700 10698 10695 10693 10691 10688 10686 10683 10681 10678 10675 10672 10670 10667 10664 10661 10658 10655 10652
10773 10772 10772 10773 10773 10772 10772 10771 10771 10770 10769 10769 10768 10768 10768 10767 10767 10766 10766 10765 10764 10763 10763 10763 10763 10762 10761 10760 10760 10759 10758 10756 10755 10754 10753 10752 10751 10750 10749 10748 10746 10745 10743 10742 10741 10739 10738 10737 10735 10734 10732 10730 10727 10725 10722 10720 10718 10716 10714 10712 10709 10706 10704 10701 10698 10695 10693 10690 10688 10685 10682 10679 10677 10674 10671 10668 10665 10663 10660 10657 10654 10651 10647 10644 10640
10770 10769 10769 10769 10769 10769 10768 10768 10768 10767 10766 10766 10765 10765 10764 10764 10763 10763 10762 10762 10761 10760 10760 10759 10759 10759 10758 10757 10756 10755 10754 10753 10752 10750 10749 10748 10747 10745 10744 10743 10741 10740 10738 10737 10735 10734 10732 10731 10729 10728 10726 10724 10721 10719 10717 10714 10712 10710 10707 10705 10702 10699 10696 10693 10690 10687 10685 10682 10679 10676 10672 10669 10667 10664 10661 10658 10655 10653 10650 10647 10644 10641 10637 10633 10629
10767 10766 10766 10766 10765 10765 10765 10765 10764 10764 10763 10763 10762 10761 10761 10760 10760 10759 10758 10758 10757 10756 10756 10756 10755 10755 10755 10754 10753 10752 10751 10750 10748 10747 10745 10744 10743 10741 10739 10738 10736 10735 10733 10731 10730 10728 10727 10725 10723 10721 10719 10717 10715 10713 10710 10708 10705 10703 10700 10697 10694 10690 10687 10684 10681 10678 10676 10672 10669 10666 10663 10660 10657 10655 10652 10649 10646 10643 10640 10637 10634 10631 10628 10624 10620
10764 10763 10763 10762 10762 10762 10762 10761 10761 10761 10760 10760 10759 10758 10757 10757 10756 10755 10754 10753 10753 10752 10752 10752 10751 10751 10751 10750 10749 10748 10747 10745 10744 10743 10741 10740 10738 10737 10735 10733 10732 10730 10728 10726 10725 10723 10721 10719 10717 10715 10713 10711 10708 10706 10703 10701 10698 10696 10693 10690 10686 10683 10679 10676 10673 10670 10668 10664 10661 10658 10655 10652 10649 10646 10643 10640 10637 10634 10631 10627 10624 10621 10618 10615 10611
10760 10760 10759 10759 10758 10758 10758 10758 10757 10757 10757 10756 10755 10754 10754 10753 10752 10751 10750 10749 10748 10748 10748 10747 10747 10747 10746 10746 10744 10743 10742 10741 10739 10738 10736 10735 10734 10732 10730 10729 10727 10725 10724 10722 10720 10718 10716 10713 10711 10709 10706 10704 10701 10698 10696 10693 10691 10688 10685 10682 10679 10675 10672 10668 10665 10662 10660 10657 10653 10649 10646 10643 10640 10637 10634 10631 10628 10624 10621 10618 10614 10611 10607 10604 10600
10756 10756 10756 10755 10755 10754 10754 10754 10753 10752 10752 10752 10751 10751 10750 10749 10748 10747 10746 10745 10744 10743 10743 10742 10742 10742 10741 10740 10739 10738 10737 10735 10734 10732 10731 10730 10728 10727 10725 10723 10722 10720 10717 10715 10713 10711 10709 10706 10704 10701 10698 10696 10693 10691 10688 10685 10682 10680 10677 10674 10671 10667 10663 10660 10657 10654 10651 10648 10644 10640 10637 10633 10630 10627 10624 10621 10618 10614 10611 10608 10604 10600 10596 10592 10588
10753 10753 10752 10752 10751 10751 10750 10750 10749 10748 10747 10747 10746 10746 10746 10746 10744 10743 10742 10741 10740 10739 10738 10738 10737 10737 10736 10735 10734 10732 10731 10729 10728 10726 10725 10723 10722 10720 10718 10717 10715 10713 10710 10708 10706 10703 10701 10699 10696 10694 10691 10688 10686 10683 10680 10677 10675 10672 10669 10665 10662 10658 10655 10652 10648 10645 10642 10639 10635 10630 10626 10623 10620 10617 10613 10610 10607 10604 10601 10597 10592 10588 10584 10580 10575
10749 10749 10749 10748 10747 10747 10747 10746 10744 10743 10743 10742 10741 10741 10741 10741 10740 10739 10738 10737 10736 10735 10734 10733 10732 10731 10730 10729 10728 10726 10725 10723 10721 10720 10719 10717 10715 10714 10712 10710 10707 10705 10703 10701 10699 10696 10694 10691 10689 10686 10683 10681 10678 10675 10673 10670 10667 10664 10660 10657 10653 10650 10647 10643 10639 10635 10632 10629 10625 10620 10616 10613 10610 10606 10603 10600 10596 10593 10589 10585 10580 10576 10572 10567 10562
10745 10745 10745 10744 10743 10743 10743 10742 10740 10739 10739 10738 10737 10736 10735 10735 10735 10734 10733 10732 10731 10730 10729 10728 10727 10726 10724 10723 10722 10720 10719 10717 10715 10714 10712 10711 10709 10707 10705 10703 10700 10698 10696 10694 10691 10689 10686 10684 10681 10678 10676 10673 10670 10667 10665 10662 10659 10655 10651 10648 10644 10641 10637 10633 10630 10626 10622 10618 10615 10610 10606 10602 10599 10596 10592 10588 10585 10581 10577 10573 10568 10563 10558 10553 10547
10740 10741 10740 10739 10739 10738 10738 10738 10736 10735 10734 10733 10732 10731 10730 10730 10729 10729 10728 10727 10726 10725 10724 10722 10721 10720 10719 10717 10716 10714 10712 10711 10709 10707 10706 10704 10702 10700 10698 10695 10693 10691 10688 10686 10683 10681 10679 10676 10674 10671 10668 10665 10662 10659 10656 10653 10650 10646 10642 10638 10634 10631 10627 10623 10620 10617 10613 10609 10604 10600 10596 10592 10588 10584 10580 10576 10572 10568 10564 10559 10553 10548 10543 10538 10532
10735 10735 10735 10734 10734 10734 10733 10732 10731 10730 10729 10729 10727 10726 10725 10725 10724 10723 10723 10722 10721 10719 10718 10717 10715 10714 10712 10711 10709 10708 10706 10704 10703 10701 10699 10697 10695 10693 10691 10688 10686 10683 10681 10678 10676 10673 10671 10668 10665 10663 10660 10657 10654 10651 10647 10644 10641 10637 10633 10629 10625 10621 10617 10613 10610 10606 10602 10598 10593 10588 10585 10581 10577 10572 10568 10564 10559 10555 10551 10545 10539 10534 10529 10523 10517
10730 10729 10729 10729 10729 10729 10728 10727 10726 10725 10724 10724 10722 10721 10720 10720 10719 10717 10716 10716 10715 10713 10712 10710 10709 10708 10706 10705 10703 10701 10699 10698 10696 10694 10693 10690 10688 10686 10684 10681 10679 10676 10673 10671 10668 10665 10663 10660 10657 10654 10651 10647 10644 10640 10637 10633 10630 10627 10623 10619 10615 10611 10607 10603 10599 10595 10590 10585 10580 10575 10571 10568 10564 10560 10556 10551 10547 10542 10537 10531 10525 10519 10513 10508 10502
10725 10724 10724 10723 10723 10723 10722 10722 10721 10720 10719 10718 10717 10715 10715 10714 10713 10712 10710 10709 10708 10707 10706 10704 10703 10701 10700 10698 10696 10694 10693 10691 10689 10687 10686 10683 10681 10679 10676 10674 10672 10669 10666 10663 10661 10658 10655 10652 10648 10645 10642 10638 10634 10631 10627 10623 10620 10616 10612 10608 10604 10600 10597 10593 10588 10584 10579 10574 10569 10564 10558 10553 10549 10545 10541 10537 10533 10528 10523 10516 10510 10504 10498 10492 10486
10720 10719 10718 10717 10717 10717 10716 10716 10715 10714 10713 10712 10711 10710 10709 10708 10707 10706 10704 10703 10702 10701 10699 10698 10696 10695 10693 10691 10689 10688 10686 10684 10682 10680 10678 10676 10674 10671 10669 10667 10664 10661 10658 10656 10653 10650 10647 10644 10640 10637 10634 10630 10626 10622 10618 10614 10610 10607 10602 10598 10594 10590 10586 10583 10578 10573 10568 10563 10558 10554 10548 10541 10534 10529 10524 10521 10516 10511 10507 10501 10494 10488 10482 10476 10469
10714 10713 10712 10712 10712 10711 10710 10710 10709 10708 10707 10706 10705 10704 10703 10702 10701 10700 10698 10697 10695 10694 10693 10691 10689 10688 10686 10684 10682 10680 10679 10677 10675 10673 10670 10668 10666 10664 10661 10659 10656 10653 10651 10648 10645 10643 10639 10636 10632 10629 10625 10621 10617 10613 10609 10606 10602 10598 10593 10588 10584 10581 10577 10572 10568 10562 10557 10552 10547 10542 10537 10530 10523 10516 10511 10506 10501 10495 10490 10484 10478 10472 10466 10460 10454